Regional Weather Roundup
Issued by NWS

Home | Current Version | Previous Version | Graphics & Text | Print | Product List | Glossary On
Versions: 1 2 3 4 5 6 7 8 9 10 11 12 13 14 15 16 17 18 19 20 21 22 23 24 25 26 27 28 29 30 31 32 33 34 35 36 37 38 39 40 41 42 43 44 45 46 47 48 49 50
963
ASUS43 KMKX 232000
RWRWI

WISCONSIN REGIONAL WEATHER ROUNDUP
NATIONAL WEATHER SERVICE MILWAUKEE/SULLIVAN WI
300 PM CDT SAT SEP 23 2017

NOTE: "FAIR" INDICATES FEW OR NO CLOUDS BELOW 12,000 FEET WITH NO
SIGNIFICANT WEATHER AND/OR OBSTRUCTIONS TO VISIBILITY.

WIZ001-002-006>008-014>016-023>028-232100-
NORTHWEST WISCONSIN

CITY           SKY/WX    TMP DP  RH WIND       PRES   REMARKS
SUPERIOR ARPT  CLOUDY    83  72  68 W8        29.92S HX  88
ASHLAND        SUNNY     90  71  53 SW15G21   29.93F HX  96
HAYWARD        PTSUNNY   85  69  58 S16G24    29.97S HX  89
SIREN          PTSUNNY   84  69  59 SW9       29.96S HX  88
CUMBERLAND     CLOUDY    82  68  61 S13       29.98S HX  85
RICE LAKE      CLOUDY    85  68  55 S13       29.99S HX  89
CHETEK         CLOUDY    85  72  65 SW10      29.99S HX  91
LADYSMITH      MOSUNNY   85  69  57 S10       30.01F HX  89
EAU CLAIRE     PTSUNNY   88  67  49 S13       29.97F HX  91
MENOMONIE      MOSUNNY   88  69  53 S10G17    29.98S HX  92
NEW RICHMOND   MOSUNNY   86  68  53 S13       29.97S HX  89
OSCEOLA        MOSUNNY   87  69  55 S15       29.98S HX  90
$$

WIZ003>005-009-010-017-018-232100-
NORTH CENTRAL WISCONSIN

CITY           SKY/WX    TMP DP  RH WIND       PRES   REMARKS
MANITOWISH WTR NOT AVBL
ARBOR VITAE    SUNNY     86  70  59 SW12      30.02S HX  90
WOODRUFF       SUNNY     86  70  59 SW12      30.02S HX  90
RHINELANDER    MOSUNNY   85  68  56 SW13G21   30.04F HX  88
EAGLE RIVER    MOSUNNY   85  64  48 SW13G22   30.03S HX  86
LAND O LAKES   SUNNY     85  66  52 SW10G18   30.04S HX  88
PHILLIPS       MOSUNNY   85  70  60 SW13      30.01S HX  89
TOMAHAWK       MOSUNNY   85  66  52 S5        30.04S HX  88
MEDFORD        SUNNY     85  65  50 S13       30.03F HX  87
MERRILL        PTSUNNY   86  67  52 SW12      30.04F HX  88
$$

WIZ029-030-035-036-043>047-232100-
CENTRAL WISCONSIN

CITY           SKY/WX    TMP DP  RH WIND       PRES   REMARKS
WAUSAU         PTSUNNY   86  65  49 S12       30.02F HX  88
MOSINEE        NOT AVBL
MARSHFIELD     MOSUNNY   85  64  49 S9        30.03F HX  86
STEVENS POINT  MOSUNNY   87  65  48 SW12      30.04F HX  88
WAUPACA        MOSUNNY   91  66  43 SW9       30.04F HX  93
WAUTOMA        MOSUNNY   89  67  47 S7        30.03F HX  92
WISC RAPIDS    SUNNY     90  68  48 SW13      30.04F HX  94
CAMP DOUGLAS   NOT AVBL
$$

WIZ011>013-019>022-031-037>040-048>050-232100-
NORTHEAST WISCONSIN

CITY           SKY/WX    TMP DP  RH WIND       PRES   REMARKS
ANTIGO         MOSUNNY   85  65  51 SW12      30.06F HX  86
SHAWANO        MOSUNNY   91  66  43 SW8G16    30.03F HX  93
OCONTO         SUNNY     90  67  46 SW8       30.02F HX  92
STURGEON BAY   PTSUNNY   89  69  51 SE10      30.04F HX  93
GREEN BAY      SUNNY     90  68  48 S10       30.04F HX  94
MANITOWOC      SUNNY     83  69  62 S13       30.06F HX  86
APPLETON       MOSUNNY   90  57  33 S12       30.04F HX  88
CLINTONVILLE   MOSUNNY   90  63  40 SW9       30.03F HX  90
OSHKOSH        SUNNY     88  66  48 S8        30.04F HX  90
$$

WIZ032>034-041-042-053>061-232100-
SOUTHWEST WISCONSIN

CITY           SKY/WX    TMP DP  RH WIND       PRES   REMARKS
LA CROSSE      MOSUNNY   94  65  38 S13G21    29.98F HX  96
SPARTA         MOSUNNY   89  65  44 S6G18     30.02S HX  90
VIROQUA        SUNNY     89  66  45 S10G16    30.05F HX  91
BOSCOBEL       SUNNY     95  62  33 S12G20    30.00F HX  96
PRAIRIE DU CHI SUNNY     92  59  33 SE7       30.00F HX  91
PLATTEVILLE    SUNNY     92  63  38 SW10      30.05F HX  93
$$

WIZ056-057-062-063-064-067-068-232100-
SOUTH CENTRAL WISCONSIN

CITY           SKY/WX    TMP DP  RH WIND       PRES   REMARKS
REEDSBURG      MOSUNNY   91  65  41 S10       30.03F HX  93
BARABOO/DELLS  NOT AVBL
LONE ROCK      SUNNY     93  64  38 S10       30.01F HX  94
MINERAL POINT  MOSUNNY   91  61  35 S8        30.06F HX  91
MADISON        MOSUNNY   91  63  39 S12       30.04F HX  92
MIDDLETON      SUNNY     93  57  29 S9        30.05F HX  92
WATERTOWN      SUNNY     91  63  38 SW7       30.06S HX  92
MONROE         MOSUNNY   91  55  29 S8        30.06F HX  89
JANESVILLE     PTSUNNY   93  57  29 VRB6      30.05F HX  92
$$

WIZ051-052-058>065-066-070>072-232100-
SOUTHEAST WISCONSIN

CITY           SKY/WX    TMP DP  RH WIND       PRES   REMARKS
MILWAUKEE      MOSUNNY   87  67  51 SE16      30.06F HX  90
WAUKESHA       PTSUNNY   90  61  37 S3        30.08F HX  89
MILWAUKEE/TIMM MOSUNNY   90  61  37 SE8       30.07F HX  89
RACINE         SUNNY     87  67  51 SE10      30.08F HX  90
BURLINGTON     SUNNY     94  64  37 S6        30.06F HX  95
KENOSHA        SUNNY     90  66  45 SE14      30.07S HX  92
FOND DU LAC    SUNNY     89  62  40 SW9       30.05F HX  89
SHEBOYGAN      SUNNY     88  71  57 SE10      30.06F HX  94
WEST BEND        N/A     86  64  48 SE8       30.07F HX  87
JUNEAU         MOSUNNY   88  65  45 S6        30.07F HX  90
$$

LSZ147-162-232100-
LAKE SUPERIOR

STATION/POSITION TIME  TEMP    WIND        PRES    WAVE
                       AIR SEA DIR/SP/G            HT/PER
                 (UTC) (F)     (DEG/KT/KT) (MB)    (FT/S)
W MID LAKE BUOY  1850   62 55  210/  8/  8 1013.0F   1/ 4
DEVILS ISLAND    1900   76     270/  5/  6 1012.9F
SAXON HARBOR     1930   88     210/ 11/ 15 1012.9S
$$

LMZ867-665-643>646-232100-
LAKE MICHIGAN

STATION/POSITION TIME  TEMP    WIND        PRES    WAVE
                       AIR SEA DIR/SP/G            HT/PER
                 (UTC) (F)     (DEG/KT/KT) (MB)    (FT/S)
S GREEN BAY BUOY 1930   76 69  190/  8/  8 1017.0F
N MID LAKE BUOY  1850   69 67  190/ 12/ 16 1018.1F   2/ 4
NORTHPORT PIER   1940   80     150/  7/ 10 1016.6F
KEWAUNEE LAKESHO 1930   68     180/ 12/ 14 1016.9F
SHEBOYGAN LAKESH 1900   72     170/ 15/ 15 1017.7F
PORT WASHINGTON  1940   78     170/  3/  5 1019.0F
ATWATER BUOY     1839   71 69  170/  4/  6 1018.7F
MILWAUKEE LAKESH 1930   70     130/ 10/ 11   N/A
S MID LAKE BUOY  1850   73 72  120/  6/  6 1019.1F   0
KENOSHA   LAKESH 1900   75     160/  8/  9 1018.3
$$

TC  - TEMPERATURE IN CELSIUS
VSB - VISIBILITY IN STATUTE MILES
WCI - WIND CHILL INDEX
HX  - HEAT INDEX





USA.gov is the U.S. government's official web portal to all federal, state and local government web resources and services.